Total_Precipitation_Accumulation
0.25 0.25 0.22 0.22 0.23 0.24 0.24 0.24 0.24 0.22 0.20 0.18 0.17 0.15 0.14 0.14 0.16 0.19 0.21 0.22 0.26 0.32 0.38 0.44 0.48 0.56 0.62 0.64 0.69 0.70 0.74 0.84 0.79 0.66 0.77 0.86 0.78 0.61 0.51 0.52 0.53 0.54 0.51
0.19 0.18 0.17 0.18 0.17 0.18 0.19 0.20 0.21 0.20 0.18 0.17 0.17 0.15 0.13 0.13 0.17 0.21 0.23 0.24 0.26 0.30 0.37 0.47 0.50 0.52 0.58 0.65 0.77 0.79 0.81 0.94 0.93 0.79 0.85 0.94 0.86 0.74 0.61 0.54 0.44 0.43 0.44
0.15 0.13 0.13 0.16 0.16 0.15 0.14 0.15 0.16 0.19 0.20 0.20 0.20 0.18 0.16 0.15 0.16 0.18 0.23 0.27 0.31 0.33 0.37 0.44 0.51 0.59 0.61 0.66 0.75 0.79 0.85 1.00 1.05 0.97 0.96 1.07 1.10 0.89 0.67 0.52 0.42 0.43 0.39
0.21 0.19 0.20 0.22 0.20 0.17 0.13 0.13 0.14 0.18 0.20 0.24 0.26 0.26 0.24 0.21 0.20 0.20 0.20 0.23 0.27 0.32 0.40 0.43 0.46 0.56 0.65 0.70 0.78 0.89 0.97 1.06 1.14 1.11 1.14 1.24 1.24 1.11 0.86 0.58 0.49 0.46 0.44
0.30 0.32 0.35 0.36 0.33 0.26 0.22 0.22 0.24 0.27 0.30 0.38 0.39 0.37 0.35 0.31 0.24 0.22 0.23 0.21 0.23 0.26 0.32 0.38 0.39 0.44 0.54 0.66 0.73 0.84 1.01 1.16 1.31 1.36 1.36 1.52 1.47 1.29 1.02 0.72 0.60 0.53 0.50
0.31 0.33 0.35 0.39 0.38 0.36 0.36 0.38 0.41 0.45 0.52 0.54 0.50 0.49 0.49 0.38 0.33 0.29 0.27 0.25 0.26 0.28 0.32 0.39 0.39 0.39 0.42 0.48 0.58 0.71 0.85 1.01 1.21 1.39 1.51 1.61 1.66 1.53 1.33 1.07 0.75 0.56 0.50
0.39 0.45 0.48 0.49 0.48 0.50 0.52 0.52 0.52 0.53 0.57 0.59 0.58 0.58 0.57 0.55 0.45 0.34 0.28 0.27 0.30 0.34 0.38 0.41 0.35 0.30 0.37 0.40 0.44 0.51 0.60 0.71 0.86 1.08 1.27 1.37 1.54 1.67 1.54 1.24 0.96 0.75 0.60
0.40 0.47 0.51 0.57 0.61 0.63 0.69 0.71 0.72 0.72 0.70 0.70 0.67 0.66 0.68 0.66 0.55 0.42 0.37 0.32 0.34 0.36 0.40 0.42 0.40 0.36 0.38 0.43 0.48 0.46 0.45 0.48 0.57 0.68 0.83 1.05 1.26 1.48 1.54 1.42 1.32 1.06 0.81
0.48 0.53 0.58 0.60 0.65 0.70 0.73 0.76 0.80 0.81 0.78 0.79 0.81 0.82 0.81 0.77 0.65 0.47 0.41 0.39 0.42 0.42 0.44 0.46 0.49 0.44 0.39 0.36 0.42 0.42 0.41 0.41 0.41 0.49 0.60 0.81 1.05 1.22 1.41 1.41 1.30 1.16 0.93
0.56 0.55 0.54 0.59 0.64 0.65 0.67 0.70 0.69 0.71 0.70 0.73 0.76 0.83 0.87 0.86 0.76 0.55 0.47 0.44 0.48 0.50 0.54 0.55 0.51 0.43 0.39 0.31 0.36 0.41 0.39 0.37 0.43 0.43 0.48 0.58 0.70 0.95 1.16 1.20 1.12 1.05 0.92
0.47 0.44 0.45 0.52 0.61 0.62 0.66 0.67 0.63 0.62 0.63 0.68 0.71 0.76 0.83 0.84 0.73 0.45 0.38 0.42 0.49 0.55 0.56 0.57 0.58 0.49 0.38 0.30 0.31 0.36 0.34 0.38 0.48 0.51 0.52 0.58 0.69 0.81 1.00 1.09 1.08 0.95 0.83
0.35 0.33 0.32 0.35 0.37 0.39 0.49 0.53 0.57 0.62 0.63 0.65 0.73 0.79 0.85 0.88 0.77 0.54 0.33 0.33 0.45 0.55 0.58 0.62 0.64 0.54 0.43 0.36 0.29 0.27 0.27 0.30 0.40 0.46 0.50 0.51 0.58 0.67 0.83 1.05 1.16 1.08 0.89
0.29 0.29 0.29 0.30 0.34 0.39 0.44 0.44 0.46 0.50 0.51 0.56 0.73 0.88 0.92 0.95 0.87 0.61 0.40 0.32 0.37 0.48 0.58 0.69 0.70 0.57 0.51 0.45 0.37 0.29 0.28 0.28 0.35 0.43 0.42 0.43 0.48 0.57 0.75 1.05 1.29 1.43 1.29
0.32 0.32 0.32 0.33 0.34 0.36 0.43 0.43 0.42 0.42 0.42 0.49 0.69 0.84 0.92 0.94 0.88 0.71 0.54 0.43 0.41 0.47 0.54 0.65 0.72 0.72 0.68 0.62 0.52 0.40 0.31 0.32 0.34 0.41 0.46 0.49 0.58 0.68 0.79 0.87 1.09 1.29 1.35
0.32 0.31 0.31 0.33 0.34 0.34 0.40 0.42 0.36 0.37 0.35 0.37 0.54 0.77 0.84 0.77 0.65 0.52 0.46 0.48 0.47 0.52 0.59 0.76 0.90 0.95 0.97 0.91 0.78 0.65 0.54 0.50 0.46 0.48 0.57 0.62 0.67 0.71 0.73 0.78 0.93 1.08 1.09
0.37 0.34 0.33 0.33 0.33 0.34 0.37 0.37 0.30 0.23 0.21 0.19 0.25 0.40 0.52 0.46 0.38 0.35 0.33 0.34 0.32 0.34 0.46 0.71 0.99 1.09 1.13 1.13 1.03 0.87 0.75 0.69 0.65 0.65 0.69 0.71 0.71 0.76 0.79 0.84 0.91 1.01 1.00
0.41 0.36 0.33 0.31 0.30 0.29 0.32 0.38 0.41 0.37 0.23 0.17 0.15 0.19 0.25 0.26 0.28 0.35 0.36 0.30 0.25 0.23 0.33 0.54 0.83 1.05 1.15 1.20 1.15 0.99 0.84 0.80 0.83 0.80 0.78 0.77 0.76 0.77 0.84 0.89 0.91 0.97 1.00
0.34 0.32 0.31 0.29 0.28 0.29 0.32 0.36 0.39 0.46 0.47 0.38 0.24 0.17 0.17 0.17 0.23 0.40 0.48 0.35 0.27 0.24 0.30 0.46 0.71 0.97 1.08 1.14 1.13 1.08 0.97 0.94 0.94 0.91 0.87 0.84 0.83 0.83 0.81 0.84 0.88 0.90 0.93
0.32 0.28 0.25 0.24 0.25 0.28 0.32 0.34 0.36 0.42 0.53 0.60 0.55 0.32 0.23 0.22 0.25 0.46 0.59 0.43 0.36 0.38 0.40 0.46 0.61 0.83 0.98 1.07 1.09 1.07 1.03 1.01 1.01 1.01 0.97 0.94 0.90 0.92 0.87 0.82 0.86 0.93 0.97
0.27 0.22 0.18 0.18 0.20 0.26 0.29 0.30 0.35 0.46 0.58 0.70 0.73 0.49 0.32 0.29 0.36 0.61 0.74 0.59 0.51 0.51 0.50 0.52 0.59 0.75 0.91 1.03 1.06 1.04 1.07 1.06 1.07 1.06 1.04 1.00 0.95 0.95 0.96 0.94 0.95 0.98 0.92
0.24 0.20 0.16 0.15 0.19 0.24 0.27 0.32 0.37 0.49 0.62 0.71 0.67 0.44 0.32 0.32 0.44 0.66 0.84 0.75 0.66 0.65 0.62 0.59 0.63 0.75 0.85 0.96 0.99 0.97 1.00 1.07 1.08 1.07 1.05 1.05 1.02 0.99 1.01 1.03 1.00 1.03 1.02
0.21 0.18 0.17 0.18 0.21 0.25 0.26 0.34 0.42 0.55 0.66 0.72 0.61 0.42 0.37 0.43 0.54 0.70 0.77 0.73 0.70 0.67 0.64 0.65 0.71 0.80 0.86 0.92 0.95 0.98 1.03 1.07 1.06 1.08 1.11 1.12 1.11 1.08 1.09 1.08 1.05 1.06 1.09
0.20 0.18 0.18 0.19 0.22 0.21 0.26 0.35 0.41 0.50 0.62 0.69 0.60 0.54 0.54 0.63 0.66 0.71 0.77 0.77 0.74 0.71 0.67 0.71 0.76 0.78 0.81 0.83 0.83 0.89 0.95 0.97 0.96 1.00 1.07 1.11 1.12 1.10 1.08 1.04 1.00 1.02 1.05
0.19 0.19 0.18 0.19 0.20 0.23 0.27 0.32 0.36 0.42 0.54 0.61 0.59 0.64 0.68 0.72 0.70 0.72 0.76 0.76 0.76 0.77 0.76 0.74 0.73 0.73 0.74 0.76 0.77 0.78 0.79 0.82 0.84 0.87 0.92 0.99 1.03 1.06 1.05 1.00 1.00 1.00 1.02
0.21 0.21 0.20 0.22 0.22 0.24 0.28 0.34 0.40 0.47 0.53 0.57 0.63 0.67 0.72 0.72 0.72 0.76 0.75 0.74 0.76 0.76 0.72 0.70 0.72 0.73 0.74 0.70 0.65 0.62 0.63 0.62 0.65 0.73 0.78 0.86 0.90 0.95 0.96 0.95 0.97 1.01 1.01
0.21 0.26 0.28 0.30 0.31 0.32 0.35 0.40 0.45 0.48 0.52 0.55 0.60 0.68 0.72 0.73 0.74 0.76 0.73 0.70 0.72 0.70 0.66 0.64 0.63 0.66 0.66 0.62 0.56 0.53 0.50 0.47 0.50 0.57 0.61 0.70 0.80 0.85 0.89 0.93 0.92 0.96 0.96